This is the latest recevied weather packets stored in our database for station/object AI9F. If no packets are shown the sender has not sent any weather packets the latest 10 day(s).
| Time | Temp. | Humidity | Pressure | Rain* | Wind** | Luminosity | Snow |
|---|---|---|---|---|---|---|---|
| 1777896984 | 13.89° C | 90% | 1009.4 hPa | 0 mm | - | 51 W/m² | - |
| 1777896681 | 13.89° C | 91% | 1009.3 hPa | 0 mm | - | 52 W/m² | - |
| 1777896378 | 13.33° C | 91% | 1009.5 hPa | 0 mm | - | 59 W/m² | - |
| 1777896076 | 13.33° C | 92% | 1009.6 hPa | 0 mm | - | 45 W/m² | - |
| 1777895774 | 12.78° C | 92% | 1009.5 hPa | 0 mm | - | 32 W/m² | - |
| 1777895471 | 12.78° C | 92% | 1009.2 hPa | 0 mm | - | 29 W/m² | - |
| 1777895169 | 12.78° C | 93% | 1009.4 hPa | 0 mm | - | 30 W/m² | - |
| 1777894865 | 12.78° C | 92% | 1009.2 hPa | 0 mm | - | 32 W/m² | - |
| 1777894563 | 12.78° C | 93% | 1009.3 hPa | 0 mm | - | 30 W/m² | - |
| 1777894260 | 12.78° C | 93% | 1009.5 hPa | 0 mm | - | 23 W/m² | - |
| 1777893957 | 12.78° C | 93% | 1009.3 hPa | 0 mm | - | 13 W/m² | - |
| 1777893653 | 12.78° C | 94% | 1009.4 hPa | 0 mm | - | 9 W/m² | - |
| 1777893349 | 12.78° C | 94% | 1009.2 hPa | 0 mm | - | 6 W/m² | - |
| 1777893045 | 12.78° C | 94% | 1009.3 hPa | 0 mm | - | 5 W/m² | - |
| 1777892743 | 12.78° C | 94% | 1009.1 hPa | 0 mm | - | 4 W/m² | - |
| 1777892439 | 12.78° C | 94% | 1009.3 hPa | 0 mm | - | 3 W/m² | - |
| 1777892135 | 12.78° C | 94% | 1009.3 hPa | 0 mm | - | 2 W/m² | - |
| 1777891832 | 12.78° C | 94% | 1009.4 hPa | 0 mm | - | 1 W/m² | - |
| 1777891529 | 12.78° C | 94% | 1009.1 hPa | 0 mm | - | 1 W/m² | - |
| 1777891226 | 12.78° C | 94% | 1009.1 hPa | 0 mm | - | 0 W/m² | - |
| 1777890925 | 12.78° C | 94% | 1009.1 hPa | 0 mm | - | 0 W/m² | - |
| 1777890620 | 12.78° C | 94% | 1009.2 hPa | 0 mm | - | 0 W/m² | - |
| 1777890315 | 12.78° C | 94% | 1009.5 hPa | 0 mm | - | 0 W/m² | - |
| 1777890012 | 12.78° C | 94% | 1009.6 hPa | 0 mm | - | 0 W/m² | - |
| 1777889710 | 12.78° C | 94% | 1009.6 hPa | 0 mm | - | 0 W/m² | - |
* Rain latest hour (hover to see other rain measurements)
** Current wind speed in m/s (hover to see current wind gust speed)